Preview of NWS' New Version of Forecast
This preview is not operational and should not be used for support decisions.

Regional Weather Roundup (RWR)

Issued by National Weather Service (NWS)

                            
000
ASUS43 KMKX 170821
RWRWI 

WISCONSIN REGIONAL WEATHER ROUNDUP
NATIONAL WEATHER SERVICE MILWAUKEE/SULLIVAN WI
300 AM CDT MON JUN 17 2019

NOTE: "FAIR" INDICATES FEW OR NO CLOUDS BELOW 12,000 FEET WITH NO
SIGNIFICANT WEATHER AND/OR OBSTRUCTIONS TO VISIBILITY.

WIZ001-002-006>008-014>016-023>028-170900-
NORTHWEST WISCONSIN
  
CITY           SKY/WX    TMP DP  RH WIND       PRES   REMARKS
SUPERIOR ARPT  CLOUDY    46  44  95 CALM      29.98S                  
ASHLAND        FAIR      42  42 100 SW3       29.99S                  
HAYWARD        FAIR      46  44  93 CALM      30.00R                  
SIREN          MOCLDY    57  55  92 S5        29.97R                  
CUMBERLAND     CLOUDY    54  52  94 SE3       29.98F                  
RICE LAKE      CLOUDY    55  53  94 CALM      30.00R                  
CHETEK         CLOUDY    54  53  97 CALM      29.99S                  
LADYSMITH      FAIR      50  49  99 CALM      30.01S                  
EAU CLAIRE     FAIR      49  47  93 CALM      29.97S                  
MENOMONIE      CLOUDY    52  50  92 E7        29.98S                  
NEW RICHMOND   CLOUDY    57  54  88 S7        29.97F                  
OSCEOLA        CLOUDY    58  55  92 SE6       29.99S                  
$$
 
WIZ003>005-009-010-017-018-170900-
NORTH CENTRAL WISCONSIN
  
CITY           SKY/WX    TMP DP  RH WIND       PRES   REMARKS
MANITOWISH WTR FOG       45  45 100 CALM      30.00S VSB 1/2          
ARBOR VITAE    FAIR      54  52  93 CALM      30.00S                  
WOODRUFF       FAIR      54  52  93 CALM      30.00S                  
RHINELANDER    FOG       46  42  86 CALM      30.01S VSB 1            
EAGLE RIVER    CLOUDY    50  48  93 CALM      30.00S                  
LAND O LAKES   CLOUDY    48  47  97 CALM      30.02S                  
PHILLIPS       FAIR      46  46 100 CALM      30.00S FOG              
TOMAHAWK       MOCLDY    41  41  97 CALM      30.02S                  
MEDFORD        FAIR      44  44  99 CALM      29.99F                  
MERRILL        FAIR      44  44 100 CALM      30.01F FOG              
$$
 
WIZ029-030-035-036-043>047-170900-
CENTRAL WISCONSIN
  
CITY           SKY/WX    TMP DP  RH WIND       PRES   REMARKS
WAUSAU         FAIR      49  47  93 CALM      29.99S                  
MOSINEE        FAIR      46  46 100 CALM      30.01S                  
MARSHFIELD     FAIR      51  50  96 NE3       29.98F                  
STEVENS POINT  FAIR      49  49 100 N3        30.00F                  
WAUPACA        CLOUDY    54  53  97 N3        29.99S                  
WAUTOMA        CLOUDY    54  52  93 CALM      29.99S                  
WISC RAPIDS    CLOUDY    54  52  93 CALM      30.00R                  
CAMP DOUGLAS   CLOUDY    52  52 100 CALM      29.98S                  
$$
 
WIZ011>013-019>022-031-037>040-048>050-170900-
NORTHEAST WISCONSIN
  
CITY           SKY/WX    TMP DP  RH WIND       PRES   REMARKS
ANTIGO         FAIR      45  45 100 CALM      30.02S                  
SHAWANO        HAZE      48  43  82 CALM      30.00S VSB 1/2          
OCONTO         FAIR      48  47  99 CALM      30.00R                  
STURGEON BAY   FAIR      46  44  93 CALM      30.00F                  
GREEN BAY      CLOUDY    56  52  86 N3        29.99S                  
MANITOWOC      CLOUDY    51  49  92 CALM      29.98F                  
APPLETON       CLOUDY    54  45  71 CALM      29.98S                  
CLINTONVILLE   MOCLDY    50  48  92 CALM      30.00S                  
OSHKOSH        CLOUDY    56  51  84 CALM      29.97F                  
$$
 
WIZ032>034-041-042-053>061-170900-
SOUTHWEST WISCONSIN
  
CITY           SKY/WX    TMP DP  RH WIND       PRES   REMARKS
LA CROSSE      CLOUDY    60  51  72 E3        29.97S                  
SPARTA         CLOUDY    50  49  97 CALM      29.99S                  
VIROQUA        CLOUDY    55  55 100 CALM      29.97F                  
BOSCOBEL       CLOUDY    59  55  87 CALM      29.97S                  
PRAIRIE DU CHI CLOUDY    58  55  89 NE3       29.96S                  
PLATTEVILLE    CLOUDY    58  58 100 N5        29.96S                  
$$

WIZ056-057-062-063-064-067-068-170900-
SOUTH CENTRAL WISCONSIN
  
CITY           SKY/WX    TMP DP  RH WIND       PRES   REMARKS
REEDSBURG      CLOUDY    53  53  99 CALM      29.97S                  
BARABOO/DELLS  FAIR      51  49  93 CALM      29.98R                  
LONE ROCK      CLOUDY    58  53  84 N3        29.96F                  
MINERAL POINT  CLOUDY    59  59 100 CALM      29.96S                  
MADISON        CLOUDY    56  52  86 NE3       29.95F                  
MIDDLETON      FAIR      54  51  92 CALM      29.97S                  
WATERTOWN      CLOUDY    54  54 100 N3        29.96S                  
MONROE         FAIR      54  52  94 N5        29.95S                  
JANESVILLE     CLOUDY    57  52  82 NE3       29.95S                  
$$
 
WIZ051-052-058>065-066-070>072-170900-
SOUTHEAST WISCONSIN
  
CITY           SKY/WX    TMP DP  RH WIND       PRES   REMARKS
MILWAUKEE      CLOUDY    53  48  83 N9        29.96S                  
WAUKESHA       CLOUDY    52  50  93 NE3       29.97S                  
MILWAUKEE/TIMM CLOUDY    54  46  76 NE7       29.97F                  
RACINE         CLOUDY    52  48  86 N9        29.96F                  
KENOSHA        CLOUDY    55  52  89 N6        29.95S                  
FOND DU LAC    CLOUDY    55  49  80 CALM      29.97F                  
SHEBOYGAN      CLOUDY    54  49  83 NE5       29.97S                  
WEST BEND      CLOUDY    54  52  94 NE3       29.97S                  
JUNEAU         MOCLDY    53  51  92 CALM      29.98S                  
$$

LSZ147-162-170900-
LAKE SUPERIOR
  
STATION/POSITION TIME  TEMP    WIND        PRES    WAVE
                       AIR SEA DIR/SP/G            HT/PER
                 (UTC) (F)     (DEG/KT/KT) (MB)    (FT/S)
W MID LAKE BUOY  0750   40 38   10/  6/  6 1016.1R   1
$$
 
LMZ867-665-643>646-170900-
LAKE MICHIGAN
  
STATION/POSITION TIME  TEMP    WIND        PRES    WAVE
                       AIR SEA DIR/SP/G            HT/PER
                 (UTC) (F)     (DEG/KT/KT) (MB)    (FT/S)
S GREEN BAY BUOY 0800   59 60   40/  6/  6 1015.7
N MID LAKE BUOY  0800   43 39  300/  6/  6 1016.7
NORTHPORT PIER   0740   48      CALM  /  2 1016.3R
SHEBOYGAN LAKESH 0800   51     360/  9/ 10 1015.1F
MILWAUKEE LAKESH 0750   51     360/  8/  9   N/A
S MID LAKE BUOY  0800   46 44   20/  8/ 10 1014.4
KENOSHA   LAKESH 0800   54      20/ 10/ 12 1014.2
$$

TC  - TEMPERATURE IN CELSIUS
VSB - VISIBILITY IN STATUTE MILES
WCI - WIND CHILL INDEX
HX  - HEAT INDEX